Location: Doutre
(48.7697°N, 2.6708°E)
Time: 14:26:18
(UTC+00:00)

Daily predictions for brighter satellites

Satellite Brightness Start Highest point End
(mag) Time Altitude Azimuth Time Altitude Azimuth Time Altitude Azimuth
BREEZE-M DEB (TANK) 3.9 19:59:01 10° SSW 20:02:17 33° SE 20:11:10 10° ENE
Cosmos 2322 Rocket 3.6 20:04:06 10° NNW 20:08:51 27° NE 20:13:33 10° ESE
Terra 3.7 20:06:09 10° E 20:09:07 17° ENE 20:12:05 10° NNE
SPOT 3 Rocket 3.7 20:05:49 10° SSE 20:10:58 61° ENE 20:16:08 10° N
Gbstr 26 Del rocket 2.9 20:09:20 10° WNW 20:13:03 66° NNE 20:16:58 10° E
Spot 2 Rocket 4.3 20:12:32 10° SE 20:17:11 36° ENE 20:21:51 10° N
Cosmos 332 Rocket 4.3 20:19:10 10° NNW 20:23:55 49° ENE 20:28:37 10° SE
ISS -3.7 20:22:01 10° WNW 20:25:24 79° SSW 20:28:39 11° ESE
ERS-2 2.2 20:23:21 10° NNE 20:27:02 85° WNW 20:30:40 10° SSW
Cosmos 1076 Rocket 3.5 20:22:49 10° S 20:27:07 69° E 20:31:29 10° NNE
USA 234 4.3 20:24:19 10° ENE 20:30:29 45° N 20:36:38 10° WNW
Cosmos 2219 Rocket 4.4 20:28:08 10° N 20:31:05 14° NNE 20:34:00 10° ENE
Cosmos 1092 Rocket 4.4 20:25:51 10° SSE 20:31:44 46° E 20:37:42 10° NNE
Cosmos 1782 4.0 20:29:37 10° N 20:33:10 28° ENE 20:36:11 12° SE
Landsat 7 4.0 20:29:01 10° S 20:33:47 78° WSW 20:38:34 10° NNW
Cosmos 1842 Rocket 4.5 20:30:31 10° NNW 20:34:52 51° W 20:39:12 10° S
SL-16 R/B 2.8 20:31:31 10° NNW 20:37:01 47° NE 20:42:00 12° SE
Cosmos 1538 Rocket 4.0 20:32:19 10° S 20:37:27 62° ESE 20:42:34 10° NNE
Cosmos 2098 Rocket 2.4 20:40:06 10° SSW 20:43:10 80° W 20:46:48 10° N
Cosmos 2026 Rocket 4.4 20:40:01 10° SSE 20:46:03 47° E 20:52:01 10° NNE
Cosmos 1271 Rocket 3.1 20:42:59 10° N 20:46:54 52° ENE 20:50:02 15° SSE
GP-B 3.4 20:46:32 10° NNE 20:50:51 48° E 20:54:30 14° SSE
CZ-2C R/B 3.7 20:46:32 10° NNE 20:51:04 65° ESE 20:55:29 10° S
Nadezhda 4 Rocket 4.1 20:47:07 10° SSW 20:53:17 81° W 20:59:34 10° N
ATLAS 5 CENTAUR R/B 4.2 20:56:41 10° NNW 21:00:27 20° NNE 21:04:41 10° ENE
Cosmos 304 Rocket 3.8 20:56:26 10° NNW 21:01:16 88° WSW 21:05:03 16° SSE
Okean 3 Rocket 4.2 21:04:43 18° SSE 21:07:34 38° E 21:11:47 10° NNE
SPOT 1/Viking Rocket 4.0 21:02:42 10° S 21:07:50 61° WSW 21:13:01 10° NNW
Cosmos 2082 Rocket 3.1 21:05:28 10° SW 21:10:57 52° NW 21:16:31 10° NNE
USA 245 4.1 21:06:56 11° S 21:12:00 64° WSW 21:16:15 10° NNW
Cosmos 1428 Rocket 4.4 21:09:52 10° S 21:15:59 77° E 21:22:07 10° NNE
Resurs 01 Rocket 3.5 21:14:24 10° SSW 21:18:08 26° W 21:21:54 10° NW
BREEZE-M DEB (TANK) 3.2 21:14:59 10° W 21:18:09 45° SSW 21:23:01 19° SE
BREEZE-M DEB (TANK) 4.3 21:15:51 10° W 21:19:29 48° SSW 21:26:50 18° SE
Cosmos 2360 Rocket 2.7 21:16:23 10° NNW 21:21:51 48° NE 21:25:36 20° ESE
Cosmos 923 Rocket 4.0 21:18:36 10° SSW 21:23:55 70° ESE 21:29:14 10° NNE
Cosmos 1408 Rocket 4.5 21:24:14 24° SE 21:25:53 31° E 21:29:45 10° NNE
Cosmos 1553 Rocket 4.0 21:20:20 10° N 21:26:24 65° ENE 21:30:29 21° SSE
Cosmos 2333 Rocket 3.5 21:23:42 10° NNW 21:28:43 31° NE 21:32:47 14° ESE
ATLAS 2AS CENTAUR R/B 4.0 21:22:26 10° WSW 21:30:05 50° NW 21:37:28 10° NE
CARTOSAT-1 4.3 21:29:56 16° S 21:33:15 49° W 21:37:27 10° NNW
USA 276 2.4 21:31:23 10° W 21:34:27 49° SSW 21:35:06 40° SSE
Cosmos 2056 Rocket 3.7 21:29:12 10° NNW 21:34:34 64° ENE 21:37:36 25° SE
Cosmos 2151 4.2 21:31:04 10° SW 21:35:04 40° WNW 21:39:08 10° N
Cosmos 1812 2.7 21:31:46 10° N 21:35:38 66° E 21:37:16 32° SSE
ATLAS 3B R/B 3.8 21:30:23 10° NW 21:36:51 38° WSW 21:42:22 15° S
USA 267 3.7 21:31:48 10° ENE 21:37:48 37° SE 21:43:47 10° SSW
Cosmos 1980 Rocket 4.2 21:38:36 10° NW 21:42:32 20° W 21:46:27 10° SW
Cosmos 2084 3.8 21:42:47 33° SSE 21:43:38 37° ESE 21:47:29 10° NE
ERS-1 Rocket 3.3 21:40:38 20° S 21:44:05 61° WSW 21:49:05 10° NNW
SPOT 5 3.0 21:41:38 22° S 21:44:18 56° W 21:48:38 10° NNW
ARIANE 5 R/B 3.4 21:41:11 17° SSW 21:44:20 46° W 21:48:38 10° NNW
SL-27 R/B 3.2 21:44:33 33° ESE 21:44:47 33° ESE 21:48:04 10° NE
Terra 1.9 21:43:31 25° S 21:46:17 78° WSW 21:51:05 10° NNW
NOSS 2-1 (C) 3.7 21:46:53 32° E 21:46:53 32° E 21:49:25 10° NE
Cosmos 1655 Rocket 4.4 21:43:54 24° SSE 21:47:26 49° E 21:53:34 10° NNE
Cosmos 1515 Rocket 3.7 21:43:31 10° N 21:47:56 59° ENE 21:49:44 33° SE
Cosmos 2237 Rocket 4.5 21:47:50 10° N 21:51:27 17° NE 21:55:03 10° ENE
Cosmos 2322 Rocket 2.3 21:47:47 10° NNW 21:53:24 68° WSW 21:56:28 27° S
Cosmos 1417 Rocket 4.5 21:47:08 10° N 21:53:31 85° E 21:57:19 26° S
NOSS 2-1 (D) 3.3 21:54:20 41° ESE 21:54:20 41° ESE 21:57:12 10° NE
Cosmos 1371 Rocket 4.1 21:50:34 10° NNW 21:55:57 81° WSW 21:58:42 30° SSE
S3M 4.1 21:49:41 10° N 21:56:06 74° E 21:59:44 28° SSE
Cosmos 2112 Rocket 4.0 21:54:10 15° SSW 21:58:35 87° ESE 22:03:54 10° NNE
H-2A R/B 3.5 21:54:53 10° NNE 21:59:04 65° ESE 22:00:38 36° S
Cosmos 1680 Rocket 3.6 21:54:17 11° SSW 21:59:25 81° WNW 22:04:43 10° NNE
Gbstr 26 Del rocket 3.4 21:56:09 10° WNW 21:59:43 39° SSW 22:00:26 36° S
Cosmos 1766 Rocket 4.0 21:57:59 18° SSW 22:01:09 60° WNW 22:05:30 10° N
ISS -1.7 21:59:29 10° W 22:01:36 17° SW 22:01:36 17° SW
Cosmos 1862 3.2 22:02:44 35° S 22:04:21 88° WNW 22:08:22 10° N
Cosmos 1151 Rocket 4.0 22:01:19 10° NNW 22:05:24 41° W 22:07:51 21° SSW
Cosmos 1328 Rocket 4.2 22:02:23 10° NNW 22:06:43 52° W 22:08:55 26° SSW
COSMOS 2455 3.6 22:05:55 28° SE 22:07:06 30° ESE 22:12:17 10° NE
USA 234 3.5 22:07:28 15° ESE 22:13:01 71° NNE 22:19:34 10° NW
ALOS 2 4.1 22:13:01 21° E 22:14:34 26° ENE 22:18:14 10° N
Cosmos 2219 Rocket 2.7 22:10:57 10° NNW 22:16:26 51° NE 22:19:12 27° ESE
COBE Rocket 4.0 22:16:53 37° SE 22:18:26 57° ENE 22:23:03 10° N
IRIDIUM 106 4.5 22:14:42 10° N 22:19:52 59° E 22:21:45 37° SE
SL-16 R/B 3.4 22:15:56 10° NW 22:20:58 33° WSW 22:23:52 21° SSW
Cosmos 2333 4.2 22:17:14 10° NNW 22:22:52 77° ENE 22:25:16 36° SE
COSMOS 2428 3.2 22:21:18 10° NNW 22:26:53 51° NE 22:29:40 28° ESE
Cosmos 1805 Rocket 3.9 22:32:29 44° SE 22:33:12 49° E 22:37:30 10° NNE
Cosmos 292 Rocket 3.8 22:28:43 10° NNW 22:33:28 68° WSW 22:34:52 44° S
Cosmos 1515 4.5 22:33:52 10° N 22:37:24 37° ENE 22:37:44 36° E
CZ-3B R/B 2.5 22:33:16 10° WNW 22:43:04 82° NNE 22:44:24 40° ESE
Cosmos 1500 Rocket 3.6 22:43:12 45° SSW 22:44:29 75° W 22:48:57 10° N
ATLAS 5 CENTAUR R/B 2.8 22:40:52 10° NW 22:46:07 54° NE 22:49:59 22° ESE
Meteor 1-27 Rocket 3.8 22:42:37 10° NNW 22:48:13 70° W 22:50:25 38° S
NOSS 2-1 (E) 3.5 22:51:16 40° W 22:52:08 55° NW 22:55:37 10° NE
NOSS 3-1 (C) 4.1 22:47:04 10° NW 22:54:30 75° SW 22:58:46 33° SSE
NOSS 0 Rocket 4.4 22:51:07 10° NNW 22:57:16 55° NE 23:00:28 28° ESE
Cosmos 972 Rocket 3.9 22:55:32 43° S 22:57:19 82° ESE 23:02:22 10° NNE
Cosmos 2285 Rocket 3.9 22:56:07 10° NNW 23:02:27 82° WSW 23:04:48 41° SSE
Cosmos 1743 Rocket 4.2 23:02:37 35° SW 23:04:07 49° WNW 23:08:27 10° N
Cosmos 2360 Rocket 3.3 23:00:43 10° NW 23:05:39 32° WSW 23:07:21 27° SW
Cosmos 2315 Rocket 4.2 23:00:27 10° NNW 23:06:41 64° W 23:09:19 36° SSW
Meteor 1-20 Rocket 4.1 23:05:25 46° S 23:07:09 77° E 23:12:51 10° NNE
Cosmos 1452 Rocket 3.6 23:01:57 10° NNW 23:07:10 65° WSW 23:08:29 47° SSW
USA 229 DEB 3.9 23:00:51 10° NW 23:08:11 89° SW 23:12:08 32° SE
USA 229 3.9 23:00:57 10° NW 23:08:16 90° W 23:12:15 32° SE
COSMOS 2487 2.6 23:13:20 66° NNW 23:13:20 66° NNW 23:16:27 10° NNE
Cosmos 1980 4.4 23:07:44 10° NNW 23:13:15 48° NE 23:16:00 27° ESE
Cosmos 2333 Rocket 2.5 23:07:46 10° NW 23:13:17 55° WSW 23:14:46 43° SSW
Spot 4 4.2 23:14:03 44° SW 23:15:07 53° W 23:19:51 10° NNW
Cosmos 2084 Rocket 4.5 23:11:14 10° NNW 23:15:12 41° NE 23:17:03 26° E
Sich 1 3.0 23:14:38 63° SSW 23:15:17 81° W 23:19:41 10° N
Cosmos 1633 Rocket 3.3 23:17:04 51° ESE 23:17:22 52° E 23:21:37 10° NNE
Cosmos 2228 Rocket 3.9 23:16:27 10° NNW 23:20:34 39° W 23:21:21 35° WSW
Cosmos 1666 Rocket 3.5 23:20:10 63° SE 23:20:36 68° E 23:25:02 10° NNE
USA 267 3.3 23:14:39 10° NE 23:21:13 82° NNW 23:27:46 10° WSW
Cosmos 489 Rocket 4.4 23:20:59 41° SSW 23:23:23 82° ESE 23:29:47 10° NNE
Cosmos 2322 4.2 23:19:02 10° NW 23:24:32 48° WSW 23:25:54 40° SSW
Terra 4.4 23:24:04 10° W 23:24:50 10° W 23:25:36 10° WNW
NOSS 3-1 (A) 4.0 23:21:10 10° NW 23:28:36 75° SW 23:32:41 35° SSE
Meteor 1-18 Rocket 4.2 23:24:42 10° NNW 23:30:37 87° E 23:32:22 48° SSE
CZ-4C R/B 4.3 23:26:29 10° NW 23:32:26 33° NNE 23:39:24 10° E
Cosmos 2297 Rocket 3.1 23:32:09 31° ESE 23:32:51 32° ESE 23:37:48 10° NE
Cosmos 1110 Rocket 4.0 23:29:09 10° NNW 23:34:28 72° WSW 23:35:37 54° S
Cosmos 2322 Rocket 4.5 23:35:06 10° W 23:36:21 11° W 23:37:34 10° WSW
Cosmos 2237 Rocket 2.4 23:31:01 10° NNW 23:36:41 64° ENE 23:38:58 36° SE
Okean 1 3.4 23:33:18 10° NNW 23:37:17 64° W 23:37:21 64° WSW
Meteor 1-25 Rocket 4.4 23:38:17 39° SW 23:40:16 64° WNW 23:45:49 10° N
Cosmos 1331 Rocket 4.0 23:35:38 10° NNW 23:40:52 70° WSW 23:41:53 55° SSW
Cosmos 1862 Rocket 3.3 23:38:17 10° N 23:42:40 87° WSW 23:43:02 75° S
Cosmos 1500 3.1 23:44:24 83° NW 23:44:24 83° NW 23:48:12 10° N
Cosmos 2227 Rocket 3.2 23:43:37 29° ESE 23:44:23 30° ESE 23:49:13 10° NE
Cosmos 1745 Rocket 4.1 23:43:09 43° SSE 23:45:09 65° E 23:51:22 10° NNE
ALOS 2 3.4 23:50:25 37° WSW 23:50:45 38° W 23:54:52 10° NNW
Cosmos 1707 Rocket 4.3 23:48:04 10° NNW 23:52:09 40° W 23:52:31 39° WSW
COSMOS 2455 3.3 23:49:00 23° WSW 23:52:43 59° NW 23:58:42 10° NNE
